User: anonymous   Login
Location: Mainz-Finthen
(49.9906°N, 8.1713°E)
Time: 13:03:40
(UTC+00:00)
Language:

Oscar 19 - Orbit

View from above orbital plane
View from above orbital plane
View from above satellite
View from above satellite

Ground track
Ground track

The orbit data is extracted from the following two-line orbital elements,

1 20442U 90005G   21339.83418281  .00000022  00000-0  24548-4 0  9990
2 20442  98.7665 297.0532 0012192  22.4273 337.7441 14.33009348665379
Epoch (UTC): 05 December 2021 20:01:13
Eccentricity: 0.0012192
inclination: 98.7665°
perigee height: 773 km
apogee height: 790 km
right ascension of ascending node: 297.0532°
argument of perigee: 22.4273°
revolutions per day: 14.33009348
mean anomaly at epoch: 337.7441°
orbit number at epoch: 66537

The dashed part of the orbit path shows where the satellite is in the earth's shadow,  

DLR